Location: Allonne
(49.4086°N, 2.1143°E)
Time: 04:48:06
(UTC+00:00)

UNISAT 6 - Pass Details

Date: 06 December 2023
Orbit: 596 x 671 km, 97.7° (Epoch: 22 February)

Event Time Altitude Azimuth Distance (km) Brightness Sun altitude
Exits shadow 17:26:19 - 10° (N) 3,015 ? -14.4°
Rises 17:26:24 0° 10° (N) 2,981 ? -14.4°
Reaches altitude 10° 17:28:40 10° 6° (N) 2,054 ? -14.7°
Maximum altitude 17:33:03 58° 288° (WNW) 742 ? -15.4°
Drops below altitude 10° 17:37:18 10° 210° (SSW) 1,990 ? -16.1°
Sets 17:39:29 0° 206° (SSW) 2,880 ? -16.4°
